This demonstration page uses our WeatherBlox Daily Observations layout. Learn more.

Left ArrowRight Arrow

Hourly Observations for December 1, 2016

Temp ( °F °C ) Dew Point ( °F °C ) Humidity (%) Winds ( mph kmh ) Pressure ( in mb ) Visibility ( mi km ) Precip ( " mm )
12:19 am 00:19 Cloudy 37 3 30 -1 75 75 W 13 20 29.83 1010 10 16 N/A
12:38 am 00:38 Cloudy 37 3 30 -1 75 75 W 15 24 29.83 1010 7 11 N/A
12:58 am 00:58 Cloudy 36 2 32 undefined 87 87 W 15 24 29.83 1010 4 6 N/A
1:19 am 01:19 Cloudy 36 2 32 undefined 87 87 W 13 20 29.83 1010 10 16 N/A
1:38 am 01:38 Cloudy 36 2 32 undefined 87 87 W 12 19 29.83 1010 10 16 N/A
1:58 am 01:58 Cloudy 36 2 32 undefined 87 87 W 12 19 29.83 1010 10 16 N/A
2:19 am 02:19 Cloudy 36 2 32 undefined 87 87 W 9 15 29.83 1010 10 16 N/A
2:38 am 02:38 Cloudy 36 2 32 undefined 87 87 W 10 17 29.83 1010 10 16 N/A
2:58 am 02:58 Cloudy 36 2 30 -1 81 81 WSW 15 24 29.83 1010 10 16 N/A
3:19 am 03:19 Cloudy 36 2 28 -2 75 75 W 21 33 29.85 1011 10 16 N/A
3:38 am 03:38 Cloudy 36 2 27 -3 70 70 W 18 30 29.85 1011 10 16 N/A
3:59 am 03:59 Cloudy 36 2 27 -3 70 70 W 16 26 29.85 1011 10 16 N/A
4:19 am 04:19 Cloudy 36 2 27 -3 70 70 W 16 26 29.85 1011 10 16 N/A
4:38 am 04:38 Cloudy 36 2 27 -3 70 70 W 20 31 29.85 1011 10 16 N/A
4:59 am 04:59 Cloudy 36 2 27 -3 70 70 W 15 24 29.85 1011 10 16 N/A
5:18 am 05:18 Cloudy 36 2 27 -3 70 70 W 15 24 29.85 1011 10 16 N/A
5:38 am 05:38 Cloudy 36 2 27 -3 70 70 WSW 16 26 29.85 1011 10 16 N/A
5:59 am 05:59 Cloudy 36 2 27 -3 70 70 W 18 30 29.85 1011 10 16 N/A
6:18 am 06:18 Cloudy 36 2 27 -3 70 70 W 17 28 29.85 1011 10 16 N/A
6:38 am 06:38 Cloudy 36 2 27 -3 70 70 W 18 30 29.88 1012 10 16 N/A
6:59 am 06:59 Cloudy 36 2 27 -3 70 70 W 15 24 29.88 1012 10 16 N/A
7:18 am 07:18 Cloudy 36 2 27 -3 70 70 W 23 37 29.88 1012 10 16 N/A
7:38 am 07:38 Cloudy 36 2 27 -3 70 70 W 23 37 29.91 1013 10 16 N/A
7:59 am 07:59 Cloudy 36 2 27 -3 70 70 W 16 26 29.91 1013 10 16 N/A
8:18 am 08:18 Cloudy 36 2 27 -3 70 70 W 17 28 29.91 1013 10 16 N/A
8:38 am 08:38 Cloudy 36 2 27 -3 70 70 W 20 31 29.91 1013 10 16 N/A
8:59 am 08:59 Cloudy 36 2 27 -3 70 70 W 20 31 29.91 1013 10 16 N/A
9:18 am 09:18 Cloudy 36 2 28 -2 75 75 W 18 30 29.97 1015 10 16 N/A
9:38 am 09:38 Cloudy 36 2 28 -2 75 75 W 14 22 29.97 1015 10 16 N/A
9:59 am 09:59 Cloudy 36 2 28 -2 75 75 W 18 30 29.97 1015 10 16 N/A
10:18 am 10:18 Cloudy 37 3 28 -2 70 70 WSW 13 20 29.94 1014 10 16 N/A
10:38 am 10:38 Cloudy 36 2 28 -2 75 75 W 18 30 29.97 1015 10 16 N/A
10:59 am 10:59 Cloudy 37 3 28 -2 70 70 WSW 16 26 29.94 1014 10 16 N/A
11:18 am 11:18 Cloudy 37 3 28 -2 70 70 W 15 24 29.94 1014 10 16 N/A
11:38 am 11:38 Cloudy 37 3 30 -1 75 75 WSW 18 30 29.94 1014 10 16 N/A
11:59 am 11:59 Cloudy 37 3 28 -2 70 70 WSW 16 26 29.94 1014 10 16 N/A
12:18 pm 12:18 Cloudy 37 3 28 -2 70 70 W 15 24 29.94 1014 10 16 N/A
12:38 pm 12:38 Cloudy 37 3 30 -1 75 75 W 15 24 29.97 1015 10 16 N/A
12:58 pm 12:58 Cloudy 39 4 28 -2 65 65 W 16 26 29.94 1014 10 16 N/A
1:18 pm 13:18 Cloudy 39 4 28 -2 65 65 W 17 28 29.94 1014 10 16 N/A
1:38 pm 13:38 Cloudy 39 4 28 -2 65 65 W 16 26 29.97 1015 10 16 N/A
1:58 pm 13:58 Cloudy 37 3 28 -2 70 70 WSW 15 24 29.97 1015 10 16 N/A
2:18 pm 14:18 Cloudy 39 4 28 -2 65 65 W 16 26 29.97 1015 10 16 N/A
2:38 pm 14:38 Cloudy 37 3 30 -1 75 75 WSW 13 20 29.97 1015 10 16 N/A
2:59 pm 14:59 Cloudy 37 3 30 -1 75 75 WSW 16 26 30.00 1016 10 16 N/A
3:18 pm 15:18 Cloudy 37 3 30 -1 75 75 WSW 14 22 30.00 1016 10 16 N/A
3:38 pm 15:38 Cloudy 37 3 30 -1 75 75 W 14 22 30.00 1016 10 16 N/A
3:59 pm 15:59 Cloudy 37 3 28 -2 70 70 WSW 14 22 30.00 1016 10 16 N/A
4:18 pm 16:18 Cloudy 37 3 28 -2 70 70 WSW 15 24 30.00 1016 10 16 N/A
4:38 pm 16:38 Cloudy 37 3 28 -2 70 70 WSW 12 19 30.03 1017 10 16 N/A
4:59 pm 16:59 Cloudy 37 3 30 -1 75 75 WSW 14 22 30.03 1017 10 16 N/A
5:18 pm 17:18 Cloudy 37 3 30 -1 75 75 WSW 14 22 30.03 1017 10 16 N/A
5:38 pm 17:38 Cloudy 37 3 30 -1 75 75 WSW 12 19 30.03 1017 10 16 N/A
5:59 pm 17:59 Cloudy 36 2 30 -1 81 81 WSW 14 22 30.06 1018 10 16 N/A
6:18 pm 18:18 Cloudy 36 2 30 -1 81 81 WSW 13 20 30.06 1018 10 16 N/A
6:38 pm 18:38 Cloudy 36 2 30 -1 81 81 WSW 13 20 30.06 1018 10 16 N/A
6:58 pm 18:58 Cloudy 41 5 34 1 76 76 W 15 24 29.74 1007 10 16 N/A
6:59 pm 18:59 Cloudy 36 2 30 -1 81 81 WSW 8 13 30.06 1018 10 16 N/A
7:18 pm 19:18 Cloudy 36 2 30 -1 81 81 WSW 10 17 30.06 1018 10 16 N/A
7:38 pm 19:38 Cloudy 36 2 30 -1 81 81 WSW 12 19 30.06 1018 10 16 N/A
7:59 pm 19:59 Cloudy 36 2 30 -1 81 81 W 14 22 30.09 1019 10 16 N/A
8:18 pm 20:18 Cloudy 36 2 30 -1 81 81 WSW 13 20 30.09 1019 10 16 N/A
8:38 pm 20:38 Cloudy 36 2 30 -1 81 81 W 12 19 30.09 1019 10 16 N/A
8:59 pm 20:59 Cloudy 36 2 30 -1 81 81 W 13 20 30.09 1019 10 16 N/A
9:18 pm 21:18 Cloudy 36 2 30 -1 81 81 W 9 15 30.09 1019 10 16 N/A
9:38 pm 21:38 Cloudy 36 2 30 -1 81 81 W 8 13 30.12 1020 10 16 N/A
9:59 pm 21:59 Cloudy 36 2 30 -1 81 81 W 14 22 30.12 1020 10 16 N/A
10:18 pm 22:18 Cloudy 36 2 30 -1 81 81 W 13 20 30.12 1020 10 16 N/A
10:38 pm 22:38 Cloudy 36 2 30 -1 81 81 W 8 13 30.12 1020 10 16 N/A
10:59 pm 22:59 Cloudy 36 2 30 -1 81 81 W 10 17 30.12 1020 10 16 N/A
11:18 pm 23:18 Cloudy 36 2 28 -2 75 75 W 12 19 30.12 1020 10 16 N/A
11:38 pm 23:38 Cloudy 36 2 30 -1 81 81 W 14 22 30.12 1020 10 16 N/A
11:59 pm 23:59 Cloudy 36 2 30 -1 81 81 W 10 17 30.12 1020 10 16 N/A

Powered by AerisWeather